Waarnemingen

Advertentie
Mijn weer
Chassiron, Frankrijk (7314): temperatuur & dauwpunt: 14.10.2018 04:00:00 - 20.10.2018 04:00:00 (CEST)Chassiron, Frankrijk (7314): windsnelheid & windstoten: 14.10.2018 04:00:00 - 20.10.2018 04:00:00 (CEST)Chassiron, Frankrijk (7314): windrichting: 14.10.2018 04:00:00 - 20.10.2018 04:00:00 (CEST)Chassiron, Frankrijk (7314): luchtdruk: 14.10.2018 04:00:00 - 20.10.2018 04:00:00 (CEST)Chassiron, Frankrijk (7314): zicht: 14.10.2018 04:00:00 - 20.10.2018 04:00:00 (CEST)Chassiron, Frankrijk (7314): neerslag: 14.10.2018 04:00:00 - 20.10.2018 04:00:00 (CEST)
Datum & Tijd tt [°C] td [°C] ff [km/u] ff [kn] fx [km/u] fx [kn] dd ppp [hPa] vv [km] rr [mm]
20.10.2018 04:00:00 14,4 11,7 23 13 39 21 NO 1024,1 - 0,0
20.10.2018 03:00:00 14,6 12,1 27 15 38 20 NNO 1024,3 - 0,0
20.10.2018 02:00:00 15,0 12,1 24 13 39 21 NO 1024,0 - 0,0
20.10.2018 01:00:00 15,1 12,2 26 14 40 22 NO 1023,7 - 0,0
20.10.2018 00:00:00 15,2 12,3 28 15 41 22 NO 1023,8 - 0,0
19.10.2018 23:00:00 15,6 12,7 27 15 41 22 NO 1023,8 14 0,0
19.10.2018 22:00:00 16,1 12,8 27 14 46 25 NNO 1023,2 - 0,0
19.10.2018 21:00:00 16,9 13,2 32 18 42 23 NNO 1022,7 - 0,0
19.10.2018 20:00:00 17,9 13,6 29 16 38 21 NNO 1022,4 14 0,0
19.10.2018 19:00:00 18,4 13,5 21 12 28 15 NNO 1021,1 - 0,0
19.10.2018 18:00:00 18,8 14,1 14 8 23 13 NO 1020,6 - 0,0
19.10.2018 17:00:00 19,4 14,0 13 7 21 11 NO 1020,3 14 0,0
19.10.2018 16:00:00 19,5 13,9 13 7 24 13 NNO 1020,3 - 0,0
19.10.2018 15:00:00 19,0 13,4 15 8 29 15 NO 1020,9 - 0,0
19.10.2018 14:00:00 18,3 13,4 20 11 32 18 NNO 1021,3 10 0,0
19.10.2018 13:00:00 17,2 13,1 23 12 32 18 NNO 1021,1 - 0,0
19.10.2018 12:00:00 15,3 12,1 23 13 33 18 NO 1021,1 - 0,0
19.10.2018 11:00:00 14,5 11,6 23 12 35 19 NO 1021,0 5 0,0
19.10.2018 10:00:00 14,1 11,4 25 13 37 20 NO 1020,5 - 0,0
19.10.2018 09:00:00 13,8 11,5 25 13 36 19 NO 1019,9 - 0,0
19.10.2018 08:00:00 13,9 11,4 24 13 36 19 NO 1019,6 - 0,0
19.10.2018 07:00:00 14,5 11,8 22 12 31 17 NO 1019,4 - 0,0
19.10.2018 06:00:00 14,9 12,2 19 10 29 16 NO 1019,2 - 0,0
19.10.2018 05:00:00 15,0 12,1 19 10 37 20 NO 1019,5 - 0,0
19.10.2018 04:00:00 15,6 12,5 24 13 36 20 NO 1019,3 - 0,0
19.10.2018 03:00:00 15,7 12,4 26 14 40 21 NO 1019,3 - 0,0
19.10.2018 02:00:00 16,0 12,9 23 13 40 21 NNO 1018,9 11 0,0
19.10.2018 01:00:00 16,4 13,1 25 13 41 22 NNO 1018,9 - 0,0
19.10.2018 00:00:00 16,8 12,9 31 17 43 23 NNO 1019,1 - 0,0
18.10.2018 23:00:00 17,2 13,3 31 17 39 21 NNO 1018,9 12 0,0
18.10.2018 22:00:00 17,6 13,5 29 16 37 20 NNO 1018,6 - 0,0
18.10.2018 21:00:00 18,0 13,5 24 13 34 19 NNO 1018,3 - 0,0
18.10.2018 20:00:00 18,5 13,6 26 14 32 18 NNO 1017,6 - 0,0
18.10.2018 19:00:00 18,8 13,4 22 12 34 18 NNO 1017,0 - 0,0
18.10.2018 18:00:00 19,2 13,6 20 11 35 19 NNO 1016,6 - 0,0
18.10.2018 17:00:00 19,8 13,9 18 10 32 17 NO 1016,7 14 0,0
18.10.2018 16:00:00 20,0 13,2 23 12 33 18 NNO 1016,7 - 0,0
18.10.2018 15:00:00 19,8 13,9 23 12 36 19 NNO 1017,3 - 0,0
18.10.2018 14:00:00 18,6 13,7 20 11 29 16 NNO 1017,8 10 0,0
18.10.2018 13:00:00 18,5 13,8 19 10 29 15 NNO 1018,5 - 0,0
18.10.2018 12:00:00 18,2 13,9 9 5 28 15 ONO 1018,6 - 0,0
18.10.2018 11:00:00 17,2 13,1 20 11 32 18 NO 1018,4 14 0,0
18.10.2018 10:00:00 16,2 12,7 21 11 39 21 ONO 1017,9 - 0,0
18.10.2018 09:00:00 16,2 12,7 23 13 38 21 NO 1017,2 - 0,0
18.10.2018 08:00:00 16,3 12,8 24 13 39 21 NO 1016,7 - 0,0
18.10.2018 07:00:00 16,5 13,0 23 12 35 19 NO 1016,4 - 0,0
18.10.2018 06:00:00 16,3 13,2 20 11 33 18 NO 1016,1 - 0,0
18.10.2018 05:00:00 16,4 13,3 16 9 34 18 NO 1016,1 12 0,0
18.10.2018 04:00:00 16,4 13,7 22 12 34 19 NO 1016,2 - 0,0
18.10.2018 03:00:00 16,2 13,9 18 10 27 15 NO 1016,4 - 0,0
18.10.2018 02:00:00 15,9 13,9 16 9 22 12 NNO 1016,8 12 0,0
18.10.2018 01:00:00 15,9 13,9 16 9 24 13 N 1017,1 - 0,0
18.10.2018 00:00:00 16,0 14,0 18 10 24 13 NNO 1017,2 - 0,0
17.10.2018 23:00:00 16,1 14,1 19 11 25 14 NNO 1017,3 - 0,0
17.10.2018 22:00:00 16,3 14,3 16 8 23 12 N 1017,1 - 0,0
17.10.2018 21:00:00 16,3 14,0 16 9 23 13 N 1017,0 - 0,0
17.10.2018 20:00:00 16,4 13,7 17 9 23 12 N 1016,8 - 0,0
17.10.2018 19:00:00 16,3 13,2 14 8 23 12 N 1016,3 - 0,0
17.10.2018 18:00:00 16,5 13,2 15 8 20 11 N 1016,2 - 0,0
17.10.2018 17:00:00 16,7 12,6 10 5 14 8 N 1016,4 18 0,0
17.10.2018 16:00:00 16,2 12,6 12 7 16 9 N 1016,8 - 0,0
17.10.2018 15:00:00 15,8 12,2 13 7 18 10 N 1017,2 - 0,0
17.10.2018 14:00:00 15,6 12,0 13 7 16 9 NNW 1017,8 12 0,0
17.10.2018 13:00:00 15,4 11,2 6 3 14 8 NNW 1018,8 - 0,0
17.10.2018 12:00:00 15,3 10,9 10 6 16 9 NNO 1018,9 - 0,0
17.10.2018 11:00:00 14,5 11,1 12 6 17 9 N 1019,3 - 0,0
17.10.2018 10:00:00 14,4 11,0 15 8 19 11 NNO 1019,4 - 0,0
17.10.2018 09:00:00 14,2 11,0 15 8 20 11 NNO 1019,3 - 0,0
17.10.2018 08:00:00 14,1 10,9 15 8 18 10 NNO 1019,3 14 0,0
17.10.2018 07:00:00 13,8 11,0 14 8 18 10 NNO 1019,4 - 0,0
17.10.2018 06:00:00 13,6 11,1 14 8 19 11 NNO 1019,3 - 0,0
17.10.2018 05:00:00 13,9 11,6 10 6 16 9 NO 1019,3 - 0,0
17.10.2018 04:00:00 14,1 11,8 11 6 15 8 NNO 1019,8 - 0,0
17.10.2018 03:00:00 14,5 12,2 10 5 14 8 N 1019,9 - 0,0
17.10.2018 02:00:00 14,9 12,2 10 6 15 8 N 1020,3 14 0,0
17.10.2018 01:00:00 15,1 12,0 11 6 15 8 NNW 1020,6 - 0,0
17.10.2018 00:00:00 15,2 12,0 12 6 14 8 NW 1020,7 - 0,0
16.10.2018 23:00:00 15,2 11,6 10 6 15 8 NW 1020,7 - 0,0
16.10.2018 22:00:00 15,4 12,0 13 7 17 9 NW 1020,5 - 0,0
16.10.2018 21:00:00 15,4 11,8 10 6 18 10 WNW 1020,2 - 0,0
16.10.2018 20:00:00 15,5 11,3 14 7 21 11 WNW 1020,1 - 0,0
16.10.2018 19:00:00 15,9 11,7 13 7 19 10 W 1019,7 - 0,0
16.10.2018 18:00:00 17,0 12,1 10 5 18 10 WNW 1019,4 - 0,0
16.10.2018 17:00:00 17,3 12,0 7 4 13 7 WNW 1019,2 18 0,0
16.10.2018 16:00:00 17,1 12,4 8 4 16 8 WNW 1019,1 - 0,0
16.10.2018 15:00:00 17,2 12,9 8 4 13 7 WNW 1019,1 - 0,0
16.10.2018 14:00:00 16,5 13,0 8 4 12 7 WNW 1019,2 12 0,0
16.10.2018 13:00:00 16,2 13,1 6 4 10 6 WNW 1019,3 - 0,0
16.10.2018 12:00:00 15,9 14,3 4 2 7 4 WZW 1018,8 - 0,0
16.10.2018 11:00:00 15,5 14,4 4 2 6 4 ZZW 1018,3 4,9 0,0
16.10.2018 10:00:00 14,7 13,9 5 3 7 4 ZZO 1017,6 - 0,0
16.10.2018 09:00:00 12,5 11,6 3 1 5 3 ZZW 1017,1 - 0,0
16.10.2018 08:00:00 11,8 10,7 5 3 9 5 ZZO 1016,5 10 0,0
16.10.2018 07:00:00 11,8 10,5 6 3 16 8 ZZO 1016,0 - 0,0
16.10.2018 06:00:00 12,5 11,4 12 6 16 9 ZZO 1015,5 - 0,0
16.10.2018 05:00:00 12,3 11,0 13 7 19 11 ZZO 1015,3 11 0,0
16.10.2018 04:00:00 12,7 11,3 13 7 18 10 ZO 1015,1 - 0,0
16.10.2018 03:00:00 13,0 10,9 11 6 16 9 ZO 1014,7 - 0,0
16.10.2018 02:00:00 14,8 12,5 6 3 13 7 W 1014,4 12 0,0
16.10.2018 01:00:00 14,6 12,8 8 4 13 7 WZW 1013,9 - 0,0
16.10.2018 00:00:00 14,1 12,5 6 3 17 9 W 1013,2 - 0,0
15.10.2018 23:00:00 14,1 12,3 11 6 22 12 WNW 1012,8 10 0,0
15.10.2018 22:00:00 14,4 12,8 12 7 18 10 WZW 1012,6 - 0,0
15.10.2018 21:00:00 14,6 12,6 11 6 17 9 ZW 1011,6 - 0,0
15.10.2018 20:00:00 14,5 12,4 9 5 17 9 WNW 1011,0 10 0,0
15.10.2018 19:00:00 14,2 12,1 10 6 24 13 N 1010,4 - 0,0
15.10.2018 18:00:00 13,8 11,7 16 8 22 12 N 1010,0 - 0,0
15.10.2018 17:00:00 14,0 12,0 17 9 27 15 NNO 1009,6 6 0,0
15.10.2018 16:00:00 14,5 12,0 19 10 27 15 NO 1009,3 - 0,0
15.10.2018 15:00:00 15,9 11,9 16 8 21 11 NNO 1009,2 - 0,0
15.10.2018 14:00:00 16,0 12,5 10 5 19 10 NNO 1009,4 12 0,0
15.10.2018 13:00:00 15,6 12,2 9 5 18 10 ONO 1009,8 - 0,0
15.10.2018 12:00:00 15,4 12,5 14 7 23 12 NO 1008,7 - 0,0
15.10.2018 11:00:00 15,4 12,3 12 7 19 10 NO 1008,9 10 0,0
15.10.2018 10:00:00 15,4 11,8 13 7 21 11 N 1008,3 - 0,0
15.10.2018 09:00:00 15,2 11,6 13 7 20 11 NNW 1008,1 - 0,0
15.10.2018 08:00:00 15,5 12,3 15 8 21 11 WNW 1007,8 10 0,0
15.10.2018 07:00:00 15,3 11,7 11 6 17 9 W 1008,0 - 0,0
15.10.2018 06:00:00 15,2 12,0 10 6 18 10 W 1007,8 - 0,0
15.10.2018 05:00:00 15,1 12,0 14 7 20 11 WNW 1007,9 15 0,0
15.10.2018 04:00:00 15,4 12,0 18 10 31 17 W 1007,9 - 0,0
15.10.2018 03:00:00 15,5 12,1 19 11 29 16 WZW 1008,5 - 0,0
15.10.2018 02:00:00 15,6 11,2 21 11 30 16 WZW 1008,4 15 0,0
15.10.2018 01:00:00 15,4 12,2 18 10 33 18 WZW 1008,1 - 0,0
15.10.2018 00:00:00 15,0 12,5 20 11 38 20 W 1007,4 - 0,0
14.10.2018 23:00:00 15,4 13,1 26 14 39 21 W 1006,9 8 0,0
14.10.2018 22:00:00 15,1 13,0 31 17 40 21 W 1006,5 - 0,0
14.10.2018 21:00:00 15,2 13,4 32 18 41 22 W 1006,2 - 0,0
14.10.2018 20:00:00 15,4 13,6 29 16 41 22 WZW 1006,2 - 0,0
14.10.2018 19:00:00 16,0 14,4 24 13 34 19 W 1004,6 - 0,0
14.10.2018 18:00:00 16,4 15,1 26 14 35 19 WZW 1004,1 - 0,0
14.10.2018 17:00:00 17,1 16,0 27 15 39 21 ZW 1004,1 8 0,0
14.10.2018 16:00:00 18,1 16,1 16 8 28 15 Z 1003,7 - 0,0
14.10.2018 15:00:00 19,6 16,2 19 11 38 21 Z 1003,7 - 0,0
14.10.2018 14:00:00 19,8 16,4 28 15 37 20 Z 1003,7 8 0,0
14.10.2018 13:00:00 20,5 16,5 24 13 38 21 Z 1003,9 - 0,0
14.10.2018 12:00:00 19,8 16,1 22 12 44 24 Z 1003,4 - 0,0
14.10.2018 11:00:00 21,0 16,0 32 17 53 28 ZZO 1003,0 11 0,0
14.10.2018 10:00:00 21,3 16,5 31 17 52 28 ZZO 1002,7 - 0,0
14.10.2018 09:00:00 20,0 16,0 28 15 48 26 ZZO 1002,2 - 0,0
14.10.2018 08:00:00 19,1 15,8 24 13 50 27 ZO 1001,7 11 0,0
14.10.2018 07:00:00 19,2 15,9 29 15 53 29 ZO 1001,9 - 0,0
14.10.2018 06:00:00 19,2 15,7 31 17 51 27 ZO 1002,4 - 0,0
14.10.2018 05:00:00 19,0 15,5 30 16 53 29 OZO 1003,0 10 0,0
14.10.2018 04:00:00 19,0 15,5 29 16 49 26 ZO 1003,9 - 0,0

tt = temperatuur
td = dauwpunt
ff = windsnelheid
fx = windstoten
dd = windrichting
ppp = luchtdruk
vv = zicht
rr = neerslag

Weerstations in de omgeving